Thief River Falls, MN

11:15 PM CDT on July 25, 2017 (GMT -0500)
Thief River Falls Regional

Weather History for KTVF - September, 2012

Change the Weather History Date:

Sunday, September 16, 2012

  Actual Average Record
Temperature  
Mean Temperature 51 °F -  
Max Temperature 60 °F 64 °F 88 °F (1979)
Min Temperature 41 °F 46 °F 24 °F (1973)
Degree Days  
Heating Degree Days 14    
Growing Degree Days 1 (Base 50)    
Moisture  
Dew Point 38 °F    
Average Humidity 55    
Maximum Humidity 72    
Minimum Humidity 39    
Precipitation  
Precipitation 0.00 in - - ()
Sea Level Pressure  
Sea Level Pressure 30.01 in    
Wind  
Wind Speed 10 mph (NNW)    
Max Wind Speed 20 mph    
Max Gust Speed 23 mph    
Visibility 10 miles    
Events      
Averages and records for this station are not official NWS values.
T = Trace of Precipitation, MM = Missing Value Source: NWS Daily Summary

Daily Weather History Graph

Daily Weather History Graph

Search for Another Location

Airport or City:

Trip Planner

Search our weather history database for the weather conditions in past years. The results will help you decide how hot, cold, wet, or windy it might be!

Date:

Astronomy

Sep. 16, 2012 Rise Set
Actual Time 7:03 AM CDT 7:33 PM CDT
Civil Twilight 6:32 AM CDT 8:05 PM CDT
Nautical Twilight 5:55 AM CDT 8:41 PM CDT
Astronomical Twilight 5:16 AM CDT 9:20 PM CDT
Moon 7:52 AM CDT (9/16) 7:29 PM CDT (9/16)
Length of Visible Light 13h 32m
Length of Day
12h 30m
New Moon, 0% of the Moon is Illuminated
Sep 16
New Moon
Sep 22
First Quarter
Sep 29
Full
Oct 8
Last Quarter
Oct 15
New

Hourly Weather History & Observations

Time (CDT) Temp. Windchill Dew Point Humidity Pressure Visibility Wind Dir Wind Speed Gust Speed Precip Events Conditions
12:15 AM 60.8 °F - 46.4 °F 59% 29.85 in 10.0 mi NE 5.8 mph - N/A   Clear
12:35 AM 60.8 °F - 46.4 °F 59% 29.85 in 10.0 mi NE 8.1 mph - N/A   Clear
12:55 AM 60.8 °F - 46.4 °F 59% 29.86 in 10.0 mi NE 6.9 mph - N/A   Clear
1:15 AM 57.2 °F - 46.4 °F 67% 29.86 in 10.0 mi Calm Calm - N/A   Clear
1:35 AM 57.2 °F - 44.6 °F 63% 29.86 in 10.0 mi North 4.6 mph - N/A   Clear
1:55 AM 51.8 °F - 42.8 °F 71% 29.87 in 10.0 mi NNW 11.5 mph 16.1 mph N/A   Clear
2:15 AM 51.8 °F - 42.8 °F 71% 29.87 in 10.0 mi NNW 8.1 mph - N/A   Clear
2:35 AM 51.8 °F - 42.8 °F 71% 29.87 in 10.0 mi North 5.8 mph - N/A   Clear
2:55 AM 53.6 °F - 44.6 °F 72% 29.88 in 10.0 mi North 6.9 mph - N/A   Clear
3:15 AM 51.8 °F - 42.8 °F 71% 29.89 in 10.0 mi North 8.1 mph - N/A   Clear
3:35 AM 51.8 °F - 42.8 °F 71% 29.89 in 10.0 mi North 10.4 mph - N/A   Clear
3:55 AM 55.4 °F - 41.0 °F 58% 29.90 in 10.0 mi North 16.1 mph - N/A   Clear
4:15 AM 55.4 °F - 39.2 °F 54% 29.90 in 10.0 mi North 13.8 mph - N/A   Clear
4:35 AM 55.4 °F - 39.2 °F 54% 29.91 in 10.0 mi North 15.0 mph - N/A   Clear
4:55 AM 55.4 °F - 39.2 °F 54% 29.93 in 10.0 mi North 12.7 mph - N/A   Clear
5:15 AM 53.6 °F - 39.2 °F 58% 29.94 in 10.0 mi North 12.7 mph - N/A   Clear
5:35 AM 53.6 °F - 37.4 °F 54% 29.95 in 10.0 mi North 13.8 mph - N/A   Clear
5:55 AM 53.6 °F - 37.4 °F 54% 29.96 in 10.0 mi North 12.7 mph - N/A   Clear
6:15 AM 53.6 °F - 37.4 °F 54% 29.97 in 10.0 mi North 10.4 mph - N/A   Clear
6:35 AM 53.6 °F - 37.4 °F 54% 29.98 in 10.0 mi North 12.7 mph - N/A   Clear
6:55 AM 51.8 °F - 37.4 °F 58% 29.99 in 10.0 mi NNW 11.5 mph - N/A   Clear
7:15 AM 51.8 °F - 39.2 °F 62% 29.99 in 10.0 mi North 10.4 mph - N/A   Clear
7:55 AM 51.8 °F - 39.2 °F 62% 30.01 in 10.0 mi North 12.7 mph - N/A   Clear
8:15 AM 51.8 °F - 39.2 °F 62% 30.01 in 10.0 mi North 11.5 mph - N/A   Clear
8:35 AM 51.8 °F - 39.2 °F 62% 30.02 in 10.0 mi North 11.5 mph - N/A   Clear
8:55 AM 53.6 °F - 39.2 °F 58% 30.02 in 10.0 mi North 12.7 mph - N/A   Clear
9:15 AM 53.6 °F - 41.0 °F 62% 30.02 in 10.0 mi North 15.0 mph - N/A   Clear
9:35 AM 55.4 °F - 41.0 °F 58% 30.03 in 10.0 mi North 15.0 mph - N/A   Clear
9:55 AM 55.4 °F - 41.0 °F 58% 30.03 in 10.0 mi NNW 11.5 mph - N/A   Clear
10:15 AM 55.4 °F - 41.0 °F 58% 30.04 in 10.0 mi NNW 13.8 mph - N/A   Clear
10:35 AM 55.4 °F - 39.2 °F 54% 30.03 in 10.0 mi North 12.7 mph 16.1 mph N/A   Clear
10:55 AM 57.2 °F - 39.2 °F 51% 30.04 in 10.0 mi NNW 12.7 mph - N/A   Clear
11:15 AM 57.2 °F - 39.2 °F 51% 30.05 in 10.0 mi NW 16.1 mph - N/A   Clear
11:35 AM 57.2 °F - 37.4 °F 48% 30.05 in 10.0 mi NW 15.0 mph - N/A   Partly Cloudy
11:55 AM 57.2 °F - 39.2 °F 51% 30.04 in 10.0 mi NW 15.0 mph 18.4 mph N/A   Partly Cloudy
12:15 PM 57.2 °F - 39.2 °F 51% 30.03 in 10.0 mi North 12.7 mph - N/A   Partly Cloudy
12:35 PM 59.0 °F - 37.4 °F 45% 30.04 in 10.0 mi NNW 16.1 mph - N/A   Clear
12:55 PM 59.0 °F - 37.4 °F 45% 30.04 in 10.0 mi NNW 19.6 mph - N/A   Mostly Cloudy
1:15 PM 57.2 °F - 35.6 °F 44% 30.05 in 10.0 mi NNW 13.8 mph - N/A   Mostly Cloudy
1:35 PM 59.0 °F - 35.6 °F 42% 30.05 in 10.0 mi NW 15.0 mph - N/A   Scattered Clouds
1:55 PM 60.8 °F - 35.6 °F 39% 30.05 in 10.0 mi NW 13.8 mph - N/A   Clear
2:15 PM 59.0 °F - 35.6 °F 42% 30.05 in 10.0 mi NNW 13.8 mph - N/A   Clear
2:35 PM 59.0 °F - 35.6 °F 42% 30.05 in 10.0 mi NW 15.0 mph - N/A   Clear
2:55 PM 57.2 °F - 35.6 °F 44% 30.05 in 10.0 mi NNW 17.3 mph 23.0 mph N/A   Scattered Clouds
3:15 PM 57.2 °F - 37.4 °F 48% 30.05 in 10.0 mi NNW 12.7 mph 19.6 mph N/A   Partly Cloudy
3:35 PM 57.2 °F - 37.4 °F 48% 30.05 in 10.0 mi NNW 13.8 mph - N/A   Scattered Clouds
3:55 PM 57.2 °F - 37.4 °F 48% 30.05 in 10.0 mi North 15.0 mph - N/A   Scattered Clouds
4:15 PM 55.4 °F - 37.4 °F 51% 30.05 in 10.0 mi NNW 17.3 mph - N/A   Mostly Cloudy
4:35 PM 55.4 °F - 35.6 °F 47% 30.05 in 10.0 mi NNW 13.8 mph 19.6 mph N/A   Mostly Cloudy
4:55 PM 55.4 °F - 35.6 °F 47% 30.05 in 10.0 mi NNW 12.7 mph - N/A   Overcast
5:15 PM 55.4 °F - 35.6 °F 47% 30.05 in 10.0 mi NNW 13.8 mph - N/A   Overcast
5:35 PM 55.4 °F - 35.6 °F 47% 30.06 in 10.0 mi NNW 15.0 mph - N/A   Overcast
5:55 PM 55.4 °F - 35.6 °F 47% 30.06 in 10.0 mi NNW 11.5 mph - N/A   Overcast
6:15 PM 55.4 °F - 35.6 °F 47% 30.06 in 10.0 mi NNW 12.7 mph - N/A   Overcast
6:35 PM 55.4 °F - 35.6 °F 47% 30.07 in 10.0 mi NNW 13.8 mph - N/A   Mostly Cloudy
6:55 PM 55.4 °F - 35.6 °F 47% 30.07 in 10.0 mi NW 9.2 mph - N/A   Mostly Cloudy
7:15 PM 53.6 °F - 35.6 °F 51% 30.07 in 10.0 mi NNW 9.2 mph - N/A   Scattered Clouds
7:35 PM 53.6 °F - 35.6 °F 51% 30.08 in 10.0 mi NNW 8.1 mph - N/A   Scattered Clouds
7:55 PM 53.6 °F - 33.8 °F 47% 30.07 in 10.0 mi North 6.9 mph - N/A   Mostly Cloudy
8:15 PM 53.6 °F - 33.8 °F 47% 30.08 in 10.0 mi North 8.1 mph - N/A   Scattered Clouds
8:35 PM 53.6 °F - 35.6 °F 51% 30.08 in 10.0 mi North 8.1 mph - N/A   Mostly Cloudy
8:55 PM 51.8 °F - 35.6 °F 54% 30.08 in 10.0 mi North 6.9 mph - N/A   Overcast
9:15 PM 51.8 °F - 35.6 °F 54% 30.08 in 10.0 mi NNW 5.8 mph - N/A   Partly Cloudy
9:35 PM 50.0 °F - 33.8 °F 54% 30.09 in 10.0 mi NNW 6.9 mph - N/A   Scattered Clouds
9:55 PM 48.2 °F - 33.8 °F 58% 30.09 in 10.0 mi NNW 3.5 mph - N/A   Mostly Cloudy
10:15 PM 46.4 °F 44.3 °F 33.8 °F 62% 30.09 in 10.0 mi WNW 4.6 mph - N/A   Mostly Cloudy
10:35 PM 46.4 °F 44.3 °F 33.8 °F 62% 30.09 in 10.0 mi NW 4.6 mph - N/A   Scattered Clouds
10:55 PM 44.6 °F 43.1 °F 33.8 °F 66% 30.09 in 10.0 mi NW 3.5 mph - N/A   Clear
11:15 PM 44.6 °F 43.1 °F 33.8 °F 66% 30.09 in 10.0 mi NNW 3.5 mph - N/A   Clear
11:35 PM 42.8 °F 39.3 °F 32.0 °F 66% 30.09 in 10.0 mi NW 5.8 mph - N/A   Clear
11:55 PM 41.0 °F 36.4 °F 32.0 °F 70% 30.10 in 10.0 mi NW 6.9 mph - N/A   Clear